www.pogodaiklimat.ru

Погода и климат >> Архив погоды >> Пакистан >> Bahawalpur


ПОГОДА в Bahawalpur

  • Прогноз погоды в Bahawalpur
  • Монитор погоды в Bahawalpur
  • Климат города

АРХИВ ПОГОДЫ в Bahawalpur

Время (UTC), дата Ветер
(напр.,м/с)
 
Видим.   Явления Облачность Т
(С)
Тd
(С)
f
(%)
Тe
(С)
Тes
(С)
Комфортность P
(гПа)
Po
(гПа)
Тmin
(С)
Tmax
(С)
R
(мм)
R24
(мм)
S
(см)
09 11.08 ЮЗ 4 2000 м пыльный позёмок ясно +36.5 +24.6 51 +49 +61 опасность
перегрева
994.6 1000.0
12 11.08 ЮЗ 2 4000 м мгла ясно +38.0 +24.8 47 +51 +54 опасность
перегрева
992.2 1000.7 +38.3
15 11.08 штиль 0 2000 м дым 3/0
[Ac trans]
+34.5 +27.7 68 +54 +54 опасность
перегрева
991.7 1000.0
18 11.08 ЮВ 2 2000 м дым 3/0
[Ac trans]
+33.0 +26.1 67 +49 +49 опасность
перегрева
993.0 1000.0
21 11.08 ЮВ 3 2000 м дым 3/0
[Ac trans]
+31.5 +26.0 73 +47 +47 опасность
перегрева
991.6 992.0
00 12.08 ЮЗ 9 1000 м пыльный позёмок 3/0
[Ac trans]
+29.0 +23.2 71 +39 +39 очень
душно
992.3 980.2
03 12.08 ЮЗ 4 2000 м дым ясно +29.0 +24.0 74 +40 +44 очень
душно
993.3 981.2 +27.6
06 12.08 ЮЗ 2 2000 м дым ясно +31.5 +24.4 66 +44 +63 опасность
перегрева
993.6 1000.0
09 12.08 ЮЗ 1 4000 м дым ясно +36.0 +24.9 53 +49 +69 опасность
перегрева
991.7 1000.0
12 12.08 ЮЗ 1 4000 м дым 3/0
[Ac trans]
+37.5 +26.6 54 +54 +57 опасность
перегрева
989.8 1000.0 +37.7
15 12.08 штиль 0 2000 м дым 4/0
[Ac trans]
+34.5 +26.3 62 +51 +51 опасность
перегрева
990.2 1000.0
18 12.08 Ю 2 2000 м дым 3/0
[Ac trans]
+33.0 +25.3 64 +47 +47 опасность
перегрева
991.5 1000.0
21 12.08 ЮЗ 3 2000 м дым 3/0
[Ac trans]
+31.0 +25.4 72 +45 +45 опасность
перегрева
990.0 989.3
00 13.08 ЮЗ 2 2000 м дым 3/0
[Ac trans]
+29.0 +24.0 74 +40 +40 очень
душно
991.5 979.4
03 13.08 ЮЗ 4 2000 м пыльный позёмок 4/0
[Ac trans]
+29.0 +23.2 71 +39 +42 очень
душно
993.6 981.5 +27.9
06 13.08 ЮЗ 4 2000 м пыльный позёмок 4/4 300 м
[Sc]
+32.0 +24.2 63 +44 +52 опасность
перегрева
993.9 1000.0
09 13.08 ЮЗ 3 4000 м дым 4/4 300 м
[Sc]
+34.5 +25.5 60 +49 +59 опасность
перегрева
993.7 1000.0
12 13.08 ЮЗ 2 4000 м дым ясно +36.0 +24.0 50 +47 +51 опасность
перегрева
992.6 1000.0 +36.3
15 13.08 Ю 1 2000 м дым 3/0
[Ac trans]
+34.5 +23.9 54 +46 +46 опасность
перегрева
993.0 1000.0
18 13.08 штиль 0 2000 м дым ясно +32.0 +25.0 67 +46 +46 опасность
перегрева
994.8 1000.0
21 13.08 штиль 0 2000 м дым 5/4 300 м
[Sc Ac trans]
+30.5 +24.1 69 +42 +42 опасность
перегрева
994.1 1000.0
00 14.08 ЮЗ 2 2000 м дым 4/0
[Ac trans]
+29.0 +24.0 74 +40 +40 очень
душно
993.9 981.8
03 14.08 ЮЗ 2 2000 м дым 8/5 300 м
[Sc Ac trans]
+30.0 +25.1 75 +43 +45 опасность
перегрева
996.4 984.2 +28.5
06 14.08 ЮЗ 2 2000 м дым 3/0
[Ac trans]
+33.0 +24.6 61 +46 +61 опасность
перегрева
997.8 1000.0
09 14.08 ЮЗ 2 2000 м дым 3/0
[Ac trans]
+36.0 +25.6 55 +51 +65 опасность
перегрева
995.9 1000.0
12 14.08 ЮЗ 1 2000 м мгла 3/0
[Ac trans]
+37.0 +24.4 49 +49 +53 опасность
перегрева
993.8 1000.0 +37.7
15 14.08 штиль 0 2000 м дым ясно +34.5 +24.7 57 +48 +48 опасность
перегрева
994.0 1000.0
18 14.08 штиль 0 2000 м дым ясно +32.5 +24.8 64 +46 +46 опасность
перегрева
995.9 1000.0
21 14.08 ЮЗ 1 2000 м дым 3/0
[Ac trans]
+31.0 +25.2 71 +45 +45 опасность
перегрева
995.4 1000.0
00 15.08 ЮЗ 2 2000 м дым 3/0
[Ac trans]
+29.5 +24.5 75 +42 +42 опасность
перегрева
995.3 983.1
03 15.08 ЮЗ 1 2000 м дым ясно +30.0 +25.1 75 +43 +50 опасность
перегрева
997.2 985.0 +28.9
06 15.08 Ю 2 4000 м дым ясно +33.5 +25.1 62 +48 +68 опасность
перегрева
998.0 1000.0
09 15.08 ЮЗ 2 4000 м дым 3/3 300 м
[Sc]
+36.5 +24.6 51 +49 +62 опасность
перегрева
997.4 1000.0
12 15.08 Ю 1 4000 м дым 3/3 300 м
[Sc diur, vesp]
+37.0 +25.2 51 +51 +53 опасность
перегрева
996.1 998.0 +37.5
15 15.08 штиль 0 2000 м дым 3/3 1200 м
[Sc diur, vesp]
+34.0 +25.7 62 +49 +49 опасность
перегрева
996.9 997.0
18 15.08 штиль 0 2000 м дым 4/4 300 м
[Sc diur, vesp]
+33.0 +26.1 67 +49 +49 опасность
перегрева
998.8 1000.0
21 15.08 штиль 0 2000 м дым 4/4 300 м
[Sc diur, vesp]
+30.5 +25.6 75 +45 +45 опасность
перегрева
998.5 1000.0
00 16.08 штиль 0 2000 м дым ясно +29.5 +23.8 71 +40 +40 очень
душно
999.7 987.5
03 16.08 штиль 0 2000 м дым 3/0
[Ac trans]
+31.5 +25.2 69 +45 +51 опасность
перегрева
1001.5 989.3 +29.5
06 16.08 ЮВ 2 4000 м дым 1/1 1200 м
[Sc]
+36.0 +25.6 55 +51 +67 опасность
перегрева
1001.2 1001.0
09 16.08 СВ 1 4000 м дым 4/4 300 м
[Sc diur, vesp]
+37.5 +26.6 54 +54 +66 опасность
перегрева
999.6 1000.0
12 16.08 ЮЗ 1 4000 м дым 8/4 300 м
[Sc Ac trans]
+34.5 +26.3 62 +51 +52 опасность
перегрева
997.8 1000.0 +38.5
15 16.08 штиль 0 2000 м дым 4/0
[Ac trans]
+33.0 +26.1 67 +49 +49 опасность
перегрева
998.3 1000.0
18 16.08 штиль 0 2000 м дым 4/0
[Ac trans]
+31.0 +25.4 72 +45 +45 опасность
перегрева
999.2 999.0
21 16.08 штиль 0 2000 м дым 4/0
[Ac trans]
+30.0 +24.3 72 +42 +42 опасность
перегрева
998.2 998.0
00 17.08 штиль 0 2000 м дым ясно +30.0 +24.3 72 +42 +42 опасность
перегрева
997.7 985.5
03 17.08 ЮВ 1 2000 м дым 4/0
[Ac trans]
+31.0 +26.9 79 +48 +54 опасность
перегрева
998.6 986.4 +29.5
06 17.08 ЮВ 1 4000 м дым 5/4 300 м
[Sc Ac trans]
+35.5 +27.4 63 +54 +67 опасность
перегрева
998.8 1000.0
09 17.08 З 1 4000 м дым {гроза} 6/4 300 м
[Sc Ac trans]
+37.5 +25.8 51 +52 +62 опасность
перегрева
996.6 1000.0
12 17.08 штиль 0 4000 м дым 8/5 300 м
[Sc Ac trans]
+37.0 +27.6 59 +56 +58 опасность
перегрева
994.5 1000.0 +38.1
15 17.08 штиль 0 2000 м дым 8/4 300 м
[Sc Ac trans]
+34.0 +25.7 62 +49 +49 опасность
перегрева
995.1 1000.0
18 17.08 штиль 0 2000 м дым 5/5 300 м
[Sc diur, vesp]
+32.5 +25.5 67 +47 +47 опасность
перегрева
996.6 1000.0
21 17.08 штиль 0 4900 м 1/1 <50 м
[]
00 18.08 В 1 2000 м дым 3/3 1200 м
[Sc diur, vesp]
+30.0 +24.3 72 +42 +42 опасность
перегрева
995.5 983.3

 

Местоположение метеостанции Bahawalpur (Пакистан): широта 29.40 долгота 71.78 высота над уровнем моря 113 м.

В архиве по умолчанию представлена погода в Bahawalpur за последнюю неделю. Архивные данные за месяц целиком и за предыдущие месяцы, начиная с января 2011 года, Вы можете получить, выбрав интересующий диапазон дат из раскрывающегося списка и нажав кнопку "Ввод!".


*Определитесь, кто Вы:
робот инопланетянин человек

Внимание! Время в таблицах - всемирное. Для получения местного времени необходимо прибавить поправку, которая в Bahawalpur равна 5 ч.

Смотрите также архив погоды в соседних городах и на ближайших метеорологических станциях:

Погода в Multan (Пакистан) (95 км)
Погода в Khanpur (Пакистан) (136 км)
Погода в Bahawalnagar (Пакистан) (155 км)
Погода в Raifiqui Airbase (Пакистан) (159 км)
Погода в Barkhan (Пакистан) (206 км)
Погода в Sri Ganganagar (Rajasthan, Индия) (212 км)
Погода в Bikaner (Rajasthan, Индия) (215 км)
Погода в Faisal Abad (Пакистан) (259 км)
Погода в Dera Ismail Khan (Пакистан) (281 км)
Погода в Jaisalmer (Rajasthan, Индия) (291 км)

Пояснения к столбцам:

Ветер - указаны скорость ветра в м/с - средняя за 10 мин, порывы в срок и между сроками (в фигурных скобках) и направление, откуда дует ветер: С - северный, СВ - северо-восточный, В - восточный, ЮВ - юго-восточный, Ю - южный, ЮЗ - юго-западный, З - западный, СЗ - северо-западный.
Видимость - горизонтальная дальность видимости в метрах или километрах. При видимости от 1 до 10 км при отсутствии осадков обычно наблюдается дымка, при ухудшении видимости до 1 км и менее - туман. В сухую погоду видимость может ухудшаться дымом, пылью или мглою.
Явления - указаны атмосферные явления, наблюдавшиеся в срок или в последний час перед сроком; фигурными скобками обозначены явления, наблюдавшиеся между сроками (за 1-3 часа до срока); квадратными скобками обозначены град или гололедные отложения с указанием их диаметра в мм.
Облачность - указаны через наклонную черту общая и нижняя облачность в баллах и высота нижней границы облаков в метрах; квадратными скобками обозначены формы облаков: Ci - перистые, Cs - перисто-слоистые, Cc - перисто-кучевые, Ac - высококучевые, As - высокослоистые, Sc - слоисто-кучевые, Ns - слоисто-дождевые, Cu - кучевые, Cb - кучево-дождевые. Подробнее классификацию облаков см. в Атласе облаков (PDF).
T - Температура воздуха - температура, измеренная на высоте 2 м над землей.
Td - Температура точки росы - температура, при понижении до которой содержащийся в воздухе водяной пар достигнет насыщения.
f - Относительная влажность воздуха - влажноcть воздуха, измеренная на высоте 2 м над землей.
Te - Эффективная температура - температура, которую ощущает одетый по сезону человек в тени. Характеристика душности погоды. При расчете учитывается влияние влажности воздуха и скорости ветра на теплоощущения человека.
Tes - Эффективная температура на солнце - температура, которую ощущает человек, с поправкой на солнечный нагрев. Характеристика знойности погоды. Зависит от высоты солнца над горизонтом, облачности и скорости ветра. Ночью, в пасмурную погоду, а также при ветре 12 м/с и более поправка равна нулю.
P - Атмосферное давление - приведенное к уровню моря атмосферное давление.
Po - Атмосферное давление - измеренное на уровне метеостанции атмосферное давление.
Tmin - Минимальная температура - минимум температуры воздуха на высоте 2 м над землей.
Tmax - Максимальная температура - максимум температуры воздуха на высоте 2 м над землей.
R - Количество осадков - Количество выпавших осадков за период времени, мм. При наведении курсора мыши на число - период времени, за который выпало указанное количество осадков.
R24 - Количество осадков - Количество выпавших осадков за 24 часа, мм.
S - Снежный покров - Высота снежного покрова, см. При наведении курсора мыши на число - состояние снежного покрова и степень покрытия местности в баллах.